Glasgow, MT

1:40 AM MDT on March 30, 2017 (GMT -0600)
Wokal-Glasgow International

Weather History for KGGW - October, 2013

Change the Weather History Date:

Monday, October 28, 2013

  Actual Average Record
Temperature  
Mean Temperature 26 °F 39 °F  
Max Temperature 30 °F 51 °F 81 °F (1937)
Min Temperature 22 °F 28 °F -3 °F (1925)
Degree Days  
Heating Degree Days 39 26  
Month to date heating degree days 576 550  
Since 1 July heating degree days 714 844  
Cooling Degree Days 0 0  
Month to date cooling degree days 0 0  
Year to date cooling degree days 563 532  
Moisture  
Dew Point 19 °F    
Average Humidity 73    
Maximum Humidity 88    
Minimum Humidity 58    
Precipitation  
Precipitation 0.01 in 0.02 in 0.64 in (1998)
Month to date precipitation 0.24 0.71  
Year to date precipitation 14.66 10.82  
Snow  
Snow 0.10 in 0.00 in 3.20 in (1961)
Month to date snowfall 0.1 1.1  
Since 1 July snowfall 0.1 1.3  
Since 1 September snowfall 0.1 1.3  
Snow Depth 0.00 in    
Sea Level Pressure  
Sea Level Pressure 30.46 in    
Wind  
Wind Speed 15 mph (East)    
Max Wind Speed 22 mph    
Max Gust Speed 26 mph    
Visibility 8 miles    
Events Snow    
T = Trace of Precipitation, MM = Missing Value Source: NWS Daily Summary

Daily Weather History Graph

Daily Weather History Graph

Search for Another Location

Airport or City:

Trip Planner

Search our weather history database for the weather conditions in past years. The results will help you decide how hot, cold, wet, or windy it might be!

Date:

Astronomy

Oct. 28, 2013 Rise Set
Actual Time 7:46 AM MDT 5:53 PM MDT
Civil Twilight 7:13 AM MDT 6:25 PM MDT
Nautical Twilight 6:37 AM MDT 7:02 PM MDT
Astronomical Twilight 6:01 AM MDT 7:38 PM MDT
Moon 1:15 AM MDT (10/28) 3:01 PM MDT (10/28)
Length of Visible Light 11h 11m
Length of Day
10h 07m
Waning Crescent, 33% of the Moon is Illuminated
Oct 28
Waning Crescent
Nov 3
New
Nov 9
First Quarter
Nov 17
Full
Nov 25
Last Quarter

Hourly Weather History & Observations

Time (MDT) Temp. Windchill Dew Point Humidity Pressure Visibility Wind Dir Wind Speed Gust Speed Precip Events Conditions
12:53 AM 28.0 °F 17.0 °F 21.9 °F 78% 30.46 in 10.0 mi East 13.8 mph - N/A   Overcast
1:45 AM 26.6 °F 15.7 °F 21.2 °F 80% 30.39 in 8.0 mi ENE 12.7 mph - 0.00 in Snow Light Snow
1:53 AM 27.0 °F 13.9 °F 21.0 °F 78% 30.47 in 8.0 mi ENE 18.4 mph - 0.00 in   Overcast
3:53 AM 25.0 °F 11.7 °F 18.0 °F 75% 30.49 in 10.0 mi ENE 17.3 mph - N/A   Overcast
4:53 AM 24.1 °F 10.1 °F 17.1 °F 75% 30.50 in 10.0 mi East 18.4 mph 25.3 mph N/A   Overcast
5:53 AM 24.1 °F 10.1 °F 16.0 °F 71% 30.51 in 10.0 mi East 18.4 mph 25.3 mph N/A   Overcast
6:53 AM 23.0 °F 10.1 °F 15.1 °F 72% 30.51 in 10.0 mi ENE 15.0 mph - N/A   Overcast
7:53 AM 21.9 °F 7.8 °F 15.1 °F 75% 30.53 in 10.0 mi East 17.3 mph - N/A   Overcast
8:53 AM 21.9 °F 7.3 °F 15.1 °F 75% 30.55 in 10.0 mi East 18.4 mph - N/A   Scattered Clouds
9:31 AM 23.0 °F 10.6 °F 15.8 °F 74% 30.46 in 10.0 mi East 13.8 mph - N/A   Overcast
9:53 AM 24.1 °F 11.0 °F 16.0 °F 71% 30.56 in 10.0 mi East 16.1 mph - N/A   Overcast
10:53 AM 25.0 °F 12.2 °F 17.1 °F 72% 30.55 in 10.0 mi East 16.1 mph - N/A   Overcast
11:53 AM 25.0 °F 12.6 °F 17.1 °F 72% 30.54 in 10.0 mi ENE 15.0 mph - N/A   Overcast
12:53 PM 26.1 °F 12.7 °F 17.1 °F 69% 30.51 in 10.0 mi East 18.4 mph - N/A   Overcast
1:53 PM 28.0 °F 17.0 °F 17.1 °F 63% 30.49 in 10.0 mi East 13.8 mph 21.9 mph N/A   Overcast
2:53 PM 30.0 °F 19.1 °F 17.1 °F 59% 30.48 in 10.0 mi East 15.0 mph - N/A   Overcast
3:30 PM 28.4 °F 17.5 °F 17.6 °F 64% 30.36 in 10.0 mi East 13.8 mph - N/A   Overcast
3:53 PM 28.9 °F 17.3 °F 17.1 °F 61% 30.46 in 10.0 mi East 16.1 mph - N/A   Mostly Cloudy
4:53 PM 28.0 °F 16.5 °F 17.1 °F 63% 30.46 in 10.0 mi East 15.0 mph - N/A   Mostly Cloudy
5:53 PM 28.0 °F 18.6 °F 17.1 °F 63% 30.45 in 10.0 mi East 10.4 mph - N/A   Overcast
6:53 PM 27.0 °F 15.6 °F 19.0 °F 72% 30.45 in 8.0 mi East 13.8 mph - N/A   Overcast
7:19 PM 26.6 °F 16.2 °F 21.2 °F 80% 30.33 in 2.0 mi East 11.5 mph - 0.01 in Snow Light Snow
7:33 PM 26.6 °F 16.8 °F 21.2 °F 80% 30.33 in 3.0 mi East 10.4 mph - 0.01 in Snow Light Snow
7:53 PM 25.0 °F 14.8 °F 21.9 °F 88% 30.45 in 2.5 mi ESE 10.4 mph - 0.01 in Snow Light Snow
8:21 PM 24.8 °F 13.4 °F 21.2 °F 86% 30.33 in 3.0 mi East 12.7 mph - 0.00 in Snow Light Snow
8:53 PM 25.0 °F 13.1 °F 21.9 °F 88% 30.43 in 6.0 mi East 13.8 mph - 0.00 in Snow Light Snow
9:53 PM 25.0 °F 13.6 °F 21.9 °F 88% 30.43 in 6.0 mi East 12.7 mph - 0.01 in Snow Light Snow
10:53 PM 25.0 °F 13.1 °F 21.9 °F 88% 30.42 in 5.0 mi East 13.8 mph - 0.00 in Snow Light Snow
11:53 PM 25.0 °F 13.6 °F 21.9 °F 88% 30.39 in 7.0 mi East 12.7 mph - 0.00 in Snow Light Snow